• In Hungary
  • List of Countries
  • For 7 days
  • Water Temperature
  • Satellite Maps
  • Weather Map
  • News
  • Weather Widgets
  • user-avatar
    Login

    Hourly Weather Novokaltaevo

    Today, 25 May, Friday

    Time Temperature Precipitation Wind Pressure Humidity
    00:00 +20°C° 0.4 mm 1 mps 749 mmHg 75%
    01:00 +19°C° 0.4 mm 1 mps 749 mmHg 77%
    02:00 +19°C° 0.1 mm 1 mps 748 mmHg 77%
    03:00 +18°C° 0.1 mm 1 mps 748 mmHg 77%
    04:00 +18°C° 0 mm 1 mps 747 mmHg 71%
    05:00 +20°C° 0 mm 1 mps 747 mmHg 68%
    06:00 +20°C° 0 mm 2 mps 746 mmHg 64%
    07:00 +21°C° 0 mm 3 mps 746 mmHg 60%
    08:00 +22°C° 0 mm 3 mps 746 mmHg 57%
    09:00 +23°C° 0 mm 4 mps 745 mmHg 54%
    10:00 +25°C° 0 mm 4 mps 746 mmHg 52%
    11:00 +23°C° 0.1 mm 4 mps 745 mmHg 57%
    12:00 +23°C° 0.1 mm 5 mps 745 mmHg 61%
    13:00 +22°C° 0.1 mm 5 mps 745 mmHg 65%
    14:00 +21°C° 0.1 mm 5 mps 745 mmHg 69%
    15:00 +21°C° 0.1 mm 5 mps 745 mmHg 72%
    16:00 +23°C° 0 mm 4 mps 744 mmHg 73%
    17:00 +20°C° 0.5 mm 6 mps 744 mmHg 77%
    18:00 +17°C° 0.5 mm 7 mps 744 mmHg 81%
    19:00 +13°C° 0.5 mm 9 mps 744 mmHg 85%
    20:00 +12°C° 0.8 mm 9 mps 744 mmHg 84%
    21:00 +10°C° 0.8 mm 9 mps 745 mmHg 83%
    22:00 +7°C° 0.8 mm 9 mps 745 mmHg 82%
    23:00 +7°C° 0.9 mm 9 mps 745 mmHg 80%

    Tomorrow, 26 May, Saturday

    Time Temperature Precipitation Wind Pressure Humidity
    00:00 +6°C° 0.9 mm 9 mps 745 mmHg 77%
    01:00 +6°C° 0.9 mm 8 mps 745 mmHg 75%
    02:00 +5°C° 0.2 mm 8 mps 745 mmHg 74%
    03:00 +4°C° 0.2 mm 8 mps 746 mmHg 73%
    04:00 +4°C° 0.2 mm 8 mps 746 mmHg 72%
    05:00 +5°C° 0 mm 9 mps 746 mmHg 71%
    06:00 +5°C° 0 mm 9 mps 747 mmHg 70%
    07:00 +6°C° 0 mm 10 mps 747 mmHg 69%
    08:00 +7°C° 0 mm 10 mps 747 mmHg 63%
    09:00 +8°C° 0 mm 10 mps 748 mmHg 57%
    10:00 +9°C° 0 mm 10 mps 748 mmHg 51%
    11:00 +11°C° 0 mm 10 mps 749 mmHg 49%
    12:00 +11°C° 0 mm 10 mps 749 mmHg 47%
    13:00 +12°C° 0 mm 10 mps 749 mmHg 45%
    14:00 +12°C° 0 mm 10 mps 750 mmHg 45%
    15:00 +12°C° 0 mm 9 mps 750 mmHg 46%
    16:00 +12°C° 0 mm 9 mps 750 mmHg 46%
    17:00 +11°C° 0 mm 9 mps 751 mmHg 48%
    18:00 +10°C° 0 mm 8 mps 751 mmHg 51%
    19:00 +9°C° 0 mm 8 mps 752 mmHg 53%
    20:00 +9°C° 0 mm 7 mps 752 mmHg 54%
    21:00 +8°C° 0 mm 7 mps 753 mmHg 54%
    22:00 +7°C° 0 mm 6 mps 754 mmHg 55%
    23:00 +5°C° 0 mm 6 mps 754 mmHg 56%

    Day after tomorrow, 27 May, Sunday

    Time Temperature Precipitation Wind Pressure Humidity
    00:00 +5°C° 0 mm 5 mps 755 mmHg 58%
    01:00 +5°C° 0 mm 5 mps 755 mmHg 59%
    02:00 +4°C° 0 mm 4 mps 755 mmHg 61%
    03:00 +3°C° 0 mm 4 mps 756 mmHg 63%
    04:00 +3°C° 0 mm 3 mps 756 mmHg 66%
    05:00 +4°C° 0 mm 4 mps 756 mmHg 63%
    06:00 +6°C° 0 mm 4 mps 756 mmHg 60%
    07:00 +7°C° 0 mm 5 mps 756 mmHg 57%
    08:00 +9°C° 0 mm 5 mps 756 mmHg 53%
    09:00 +10°C° 0 mm 5 mps 756 mmHg 49%
    10:00 +13°C° 0 mm 6 mps 756 mmHg 45%
    11:00 +14°C° 0 mm 6 mps 755 mmHg 45%
    12:00 +15°C° 0 mm 6 mps 755 mmHg 44%
    13:00 +16°C° 0 mm 6 mps 754 mmHg 44%
    14:00 +16°C° 0 mm 6 mps 754 mmHg 46%
    15:00 +17°C° 0 mm 6 mps 753 mmHg 47%
    16:00 +17°C° 0 mm 7 mps 752 mmHg 48%
    17:00 +16°C° 0 mm 6 mps 752 mmHg 53%
    18:00 +16°C° 0 mm 5 mps 752 mmHg 58%
    19:00 +15°C° 0 mm 5 mps 751 mmHg 62%
    20:00 +14°C° 0 mm 5 mps 751 mmHg 65%
    21:00 +13°C° 0 mm 5 mps 750 mmHg 67%
    22:00 +10°C° 0 mm 5 mps 750 mmHg 70%
    23:00 +10°C° 0 mm 5 mps 749 mmHg 69%

    28 May, Monday

    Time Temperature Precipitation Wind Pressure Humidity
    00:00 +10°C° 0 mm 6 mps 748 mmHg 69%
    01:00 +10°C° 0 mm 6 mps 747 mmHg 69%
    02:00 +10°C° 0 mm 7 mps 747 mmHg 69%
    03:00 +10°C° 0 mm 8 mps 746 mmHg 69%
    04:00 +11°C° 0 mm 8 mps 745 mmHg 69%
    05:00 +10°C° 0.9 mm 8 mps 745 mmHg 75%
    06:00 +10°C° 0.9 mm 8 mps 745 mmHg 81%
    07:00 +9°C° 0.9 mm 8 mps 744 mmHg 87%
    08:00 +9°C° 0.2 mm 8 mps 745 mmHg 82%
    09:00 +10°C° 0.2 mm 7 mps 745 mmHg 77%
    10:00 +10°C° 0.2 mm 6 mps 745 mmHg 72%
    11:00 +11°C° 0.4 mm 6 mps 746 mmHg 66%
    12:00 +12°C° 0.4 mm 7 mps 746 mmHg 60%
    13:00 +14°C° 0.4 mm 7 mps 746 mmHg 53%
    14:00 +14°C° 0.3 mm 7 mps 746 mmHg 53%
    15:00 +12°C° 0.3 mm 8 mps 746 mmHg 53%
    16:00 +12°C° 0.3 mm 8 mps 746 mmHg 53%
    17:00 +11°C° 0.1 mm 7 mps 746 mmHg 56%
    18:00 +10°C° 0.1 mm 7 mps 747 mmHg 60%
    19:00 +9°C° 0.1 mm 6 mps 747 mmHg 63%
    20:00 +8°C° 0 mm 5 mps 747 mmHg 66%
    21:00 +6°C° 0 mm 5 mps 748 mmHg 69%
    22:00 +5°C° 0 mm 4 mps 748 mmHg 72%
    23:00 +4°C° 0 mm 4 mps 748 mmHg 72%

    29 May, Tuesday

    Time Temperature Precipitation Wind Pressure Humidity
    00:00 +4°C° 0 mm 4 mps 748 mmHg 73%
    01:00 +3°C° 0 mm 4 mps 748 mmHg 74%
    02:00 +3°C° 0 mm 4 mps 748 mmHg 75%
    03:00 +1°C° 0 mm 4 mps 748 mmHg 75%
    04:00 +1°C° 0 mm 4 mps 748 mmHg 76%
    05:00 +2°C° 0 mm 5 mps 748 mmHg 72%
    06:00 +3°C° 0 mm 5 mps 748 mmHg 68%
    07:00 +4°C° 0 mm 6 mps 748 mmHg 65%
    08:00 +5°C° 0 mm 6 mps 748 mmHg 60%
    09:00 +6°C° 0 mm 7 mps 748 mmHg 55%
    10:00 +8°C° 0 mm 7 mps 748 mmHg 50%
    11:00 +9°C° 0.1 mm 7 mps 748 mmHg 49%
    12:00 +9°C° 0.1 mm 7 mps 748 mmHg 48%
    13:00 +10°C° 0.1 mm 7 mps 747 mmHg 47%
    14:00 +10°C° 0 mm 7 mps 747 mmHg 47%
    15:00 +10°C° 0 mm 6 mps 747 mmHg 47%
    16:00 +10°C° 0 mm 6 mps 747 mmHg 48%
    17:00 +10°C° 0 mm 5 mps 747 mmHg 51%
    18:00 +10°C° 0 mm 4 mps 747 mmHg 54%
    19:00 +10°C° 0 mm 3 mps 747 mmHg 57%
    20:00 +9°C° 0.1 mm 2 mps 747 mmHg 62%
    21:00 +8°C° 0.1 mm 2 mps 747 mmHg 66%
    22:00 +7°C° 0.1 mm 1 mps 747 mmHg 70%
    23:00 +7°C° 0 mm 1 mps 747 mmHg 74%

    30 May, Wednesday

    Time Temperature Precipitation Wind Pressure Humidity
    00:00 +7°C° 0 mm 1 mps 747 mmHg 78%
    01:00 +7°C° 0 mm 1 mps 746 mmHg 82%
    02:00 +6°C° 0 mm 1 mps 746 mmHg 84%
    03:00 +6°C° 0 mm 1 mps 746 mmHg 87%
    04:00 +5°C° 0 mm 1 mps 746 mmHg 90%
    05:00 +5°C° 0 mm 2 mps 747 mmHg 86%
    06:00 +6°C° 0 mm 2 mps 747 mmHg 82%
    07:00 +8°C° 0 mm 2 mps 747 mmHg 78%
    08:00 +9°C° 0.1 mm 3 mps 747 mmHg 72%
    09:00 +10°C° 0.1 mm 3 mps 747 mmHg 66%
    10:00 +11°C° 0.1 mm 3 mps 747 mmHg 61%
    11:00 +12°C° 0.1 mm 3 mps 747 mmHg 57%
    12:00 +13°C° 0.1 mm 4 mps 747 mmHg 53%
    13:00 +14°C° 0.1 mm 4 mps 747 mmHg 49%
    14:00 +14°C° 0 mm 4 mps 747 mmHg 49%
    15:00 +14°C° 0 mm 4 mps 747 mmHg 50%
    16:00 +14°C° 0 mm 4 mps 747 mmHg 51%
    17:00 +14°C° 0 mm 4 mps 746 mmHg 55%
    18:00 +14°C° 0 mm 3 mps 746 mmHg 59%
    19:00 +14°C° 0 mm 3 mps 745 mmHg 64%
    20:00 +13°C° 0 mm 4 mps 745 mmHg 66%
    21:00 +12°C° 0 mm 5 mps 744 mmHg 68%
    22:00 +11°C° 0 mm 6 mps 744 mmHg 70%
    23:00 +11°C° 0.2 mm 7 mps 743 mmHg 75%
    Show more